Location: *
(55.5817°S, 142.4781°W)
Time: 07:15:23
(UTC+00:00)

PSLV R/B - Pass Details

Date: 29 April 2025
Orbit: 566 x 593 km, 98.1° (Epoch: 24 May)

Event Time Altitude Azimuth Distance (km) Brightness Sun altitude
Rises 14:59:36 0° 21° (NNE) 2,844 7.3 -15.9°
Reaches altitude 10° 15:01:45 10° 22° (NNE) 1,950 6.4 -15.6°
Maximum altitude 15:06:00 80° 107° (ESE) 623 3.6 -15.0°
Drops below altitude 10° 15:10:17 10° 194° (SSW) 1,971 6.0 -14.4°
Sets 15:12:29 0° 194° (SSW) 2,878 6.8 -14.1°
